Weather in Sao Jose Do Rio Preto

Brazil     20°48′35″S   49°23′08″W
temp.,
°C
wind,
m/s
gust,
m/s
humid.,
%
clouds,
%
prec.,
mm/h
press.,
hPa
HPBL,
m
14 august, sun
sun1400:00+21ene22380 0.0 101911
03:00+19e22430 0.0 101821
06:00+18e37510 0.0 1018111
09:00+24ne69390 0.0 1019423
12:00+29nne55280 0.0 10181236
15:00+31nne23220 0.0 10142492
18:00+27ene33280 0.0 101440
21:00+24ene35290 0.0 101566
15 august, mon
mon1500:00+22ene411355 0.0 1016187
03:00+20ene49425 0.0 1014164
06:00+19ne514430 0.0 1014307
09:00+24ne711310 0.0 1015519
12:00+31nne67180 0.0 10141422
15:00+33n45170 0.0 10102930
18:00+28ne22230 0.0 100919
21:00+24ne22290 0.0 101213
16 august, tue
tue1600:00+22ene49321 0.0 1012148
03:00+21nne514344 0.0 1012303
06:00+20nne515370 0.0 1012342
09:00+26nne816276 0.0 1013683
12:00+33n8111783 0.0 10111650
15:00+34nw681736 0.0 10073250
18:00+30nw372168 0.0 1007119
21:00+27n2325100 0.0 100928
17 august, wed
wed1700:00+25n352882 0.0 101171
03:00+25nne4112653 0.0 1009306
06:00+24n373212 0.0 1010207
09:00+28nnw3826100 0.0 1013894
12:00+34nnw791818 0.0 10102310
15:00+35nw681772 0.0 10063719
18:00+30nnw342131 0.0 100752
21:00+24se6104550 0.0 1010294
18 august, thu
thu1800:00+21ese396022 0.0 1009168
03:00+22nne311456 0.0 1008215
06:00+24n61630100 0.0 1009427
09:00+27n6152695 0.0 1011759
12:00+31nnw6122089 0.0 10101456
15:00+30nw4922100 0.0 1007403
18:00+23ssw8125982 0.0 1011755
21:00+19ssw81289100 0.7 1016675